DELTA 1 DEB, 42657

Orbit data source: Space-Track

DELTA 1 DEB, 42657 is space debris in SSO originally from a launch on Thu, 12 Jun 1975 UTC launched from the Air Force Western Test Range (AFWTR). Debris objects in space refer to the collection of defunct objects orbiting the Earth. Examples of debris include non-operational satellites, rocket bodies, and fragments generated from explosions, collisions, or faulty payload assembly.

Loading next visibility...
Identifier
42657, 1975-052MS
Orbit
SSO
Country
Flag of USUS
Related business
Manufacturer
Unknown
Mission
Spacecraft
Bus & Motor
Unknown
Mass
Unknown
Launch date (UTC)
1975-06-12 (51 years ago)
Launch vehicle
Unknown
Launch site
Air Force Western Test Range (AFWTR)
Object type
Payload
Rocket body
Debris
Shape & HBR
Unknown shape, 0.1 m
Radar Cross Section
Small (<0.1 m²)

Expand to show TLE details & history
Last TLE update: 2 days ago

TLE from 2 days ago
0 DELTA 1 DEB
1 42657U 75052MS  26171.44904752  .00000016  00000-0  86980-4 0  9997
2 42657  99.6725  70.6558 0045187 341.5573  18.3924 13.54514393621620
Epoch: 2026-06-20T10:46Z
TLE epoch observation values (Epoch: 2026-06-20T10:46:37.705Z)
Latitude
-0.00006°
Longitude
0.33519°
Altitude
1,026.622 km
Speed
7.354 km/s
True Right ascension
04h 42m 37s
True Declination
0° 00' 00"
Sunlit
Object was in daylight at epoch
Visualization orbit readout
Latitude
Unknown
Longitude
Unknown
Altitude
Unknown
Speed
Unknown
Apparent Right ascension
Unknown
Apparent Declination
Unknown
Sunlit
N/A
Visualization observer readout
Local Sidereal Time
21:34:32
Azimuth
Unknown
Elevation
Unknown
Doppler factor
Unknown
Orbital elements
Apogee altitude
1,086.568 km
Perigee altitude
1,019.41 km
Semi-major axis
7,431.126 km
Eccentricity
0.00452
Inclination
99.6725°
RAAN
70.6558°
Arg. of periapsis
341.5573°
True anomaly
18.55666°
Mean anomaly
18.3924°
Eccentric anomaly
18.47444°
Mean motion
3.38814 °/min
Orbital period
106.25 mins
BSTAR
0.00008698
Loading maneuver chart data...
Computing Atmospheric mass density...
Loading historical data...
Loading historical data...
Loading historical data...
Loading historical data...
Loading historical data...
Loading historical data...
Loading historical data...

Documentation

Showing up to 5 results
|